Location: ???????
(55.4362°N, 38.1183°E)
Time: 01:29:51
(UTC+00:00)

Cosmos 2333 Rocket - Visible Passes

Search period start: 23 October 2021 00:00
Search period end: 02 November 2021 00:00
Orbit: 839 x 863 km, 70.8° (Epoch: 22 October)

Date Brightness Start Highest point End Pass type
(mag) Time Alt. Az. Time Alt. Az. Time Alt. Az.
23 Oct 4.0 00:12:28 17° NNW 00:15:50 29° NNE 00:20:48 10° E visible
23 Oct 2.2 01:55:07 10° NW 02:00:56 84° NE 02:06:43 10° SE visible
23 Oct 4.8 22:19:04 16° NNE 22:19:04 16° NNE 22:21:11 10° NE visible
24 Oct 4.0 00:01:08 21° N 00:03:36 29° NNE 00:08:34 10° E visible
24 Oct 2.2 01:43:11 12° NW 01:48:42 84° NE 01:54:29 10° SE visible
24 Oct 3.3 03:27:54 10° NW 03:32:22 24° WSW 03:36:50 10° SSW visible
24 Oct 3.7 16:43:36 10° S 16:45:28 20° S 16:45:28 20° S visible
24 Oct 4.8 18:27:31 10° SW 18:27:36 10° WSW 18:27:36 10° WSW visible
24 Oct 4.9 22:07:55 13° NE 22:07:55 13° NE 22:08:57 10° NE visible
24 Oct 3.9 23:50:00 26° N 23:51:22 29° NNE 23:56:20 10° E visible
25 Oct 2.2 01:32:04 18° NNW 01:36:28 84° ENE 01:42:15 10° SE visible
25 Oct 3.3 03:15:39 10° NW 03:20:07 24° WSW 03:24:35 10° SSW visible
25 Oct 2.9 16:31:22 10° S 16:35:06 34° SSE 16:35:06 34° SSE visible
25 Oct 4.1 18:15:17 10° SW 18:17:13 21° WSW 18:17:13 21° WSW visible
25 Oct 3.9 23:39:06 29° NNE 23:39:08 29° NNE 23:44:06 10° E visible
26 Oct 2.2 01:21:12 30° NNW 01:24:13 84° NE 01:30:01 10° SE visible
26 Oct 3.3 03:03:26 10° NW 03:07:54 24° WSW 03:12:21 10° SSW visible
26 Oct 2.5 16:19:08 10° S 16:24:25 41° ESE 16:24:33 41° ESE visible
26 Oct 3.4 18:03:03 10° SW 18:06:38 36° W 18:06:38 36° W visible
26 Oct 4.1 23:28:27 25° ENE 23:28:27 25° ENE 23:31:53 10° E visible
27 Oct 2.2 01:10:34 53° NNW 01:11:59 84° NE 01:17:47 10° SE visible
27 Oct 3.3 02:52:40 16° WNW 02:55:40 24° WSW 03:00:07 10° SSW visible
27 Oct 2.5 16:06:53 10° S 16:12:10 41° ESE 16:13:43 34° ENE visible
27 Oct 2.9 17:50:49 10° SW 17:55:48 51° WNW 17:55:48 51° WNW visible
27 Oct 5.0 19:37:35 10° WNW 19:37:52 11° WNW 19:37:52 11° WNW visible
27 Oct 4.6 23:18:03 17° E 23:18:03 17° E 23:19:39 10° E visible
28 Oct 2.2 01:00:10 77° ESE 01:00:10 77° ESE 01:05:33 10° SE visible
28 Oct 3.2 02:42:17 22° W 02:43:26 24° WSW 02:47:53 10° SSW visible
28 Oct 2.6 15:54:39 10° S 15:59:56 41° ESE 16:02:40 25° ENE visible
28 Oct 2.8 17:38:35 10° SW 17:44:10 53° NW 17:44:43 51° NNW visible
28 Oct 4.7 19:25:20 10° WNW 19:26:47 15° WNW 19:26:47 15° WNW visible
29 Oct 3.2 00:49:55 37° SE 00:49:55 37° SE 00:53:19 10° SE visible
29 Oct 3.3 02:32:03 23° WSW 02:32:03 23° WSW 02:35:39 10° SSW visible
29 Oct 2.6 15:42:25 10° S 15:47:42 41° ESE 15:51:23 19° NE visible
29 Oct 2.9 17:26:20 10° SW 17:31:55 53° NW 17:33:26 42° N visible
29 Oct 4.6 19:13:06 10° WNW 19:15:28 18° NW 19:15:28 18° NW visible
30 Oct 4.2 00:39:46 18° SE 00:39:46 18° SE 00:41:05 10° SE visible
30 Oct 3.9 02:21:54 16° SW 02:21:54 16° SW 02:23:25 10° SSW visible
30 Oct 2.6 15:30:11 10° S 15:35:28 41° ESE 15:39:55 14° NE visible
30 Oct 2.9 17:14:07 10° WSW 17:19:41 53° NW 17:21:57 33° N visible
30 Oct 4.4 19:00:52 10° WNW 19:03:59 21° NW 19:03:59 21° NW visible
31 Oct 2.6 15:17:56 10° S 15:23:14 41° ESE 15:28:20 11° NE visible
31 Oct 2.9 17:01:52 10° WSW 17:07:27 53° NW 17:10:22 28° NNE visible
31 Oct 4.4 18:48:38 10° WNW 18:52:23 22° NNW 18:52:23 22° NNW visible
01 Nov 2.6 15:05:42 10° S 15:11:00 41° ESE 15:16:21 10° NE visible
01 Nov 2.9 16:49:38 10° WSW 16:55:13 53° NW 16:58:40 23° NNE visible
01 Nov 4.3 18:36:24 10° WNW 18:40:40 22° NNW 18:40:40 22° NNW visible
